TimeMDT,TemperatureF,Dew PointF,Humidity,Sea Level PressureIn,VisibilityMPH,Wind Direction,Wind SpeedMPH,Gust SpeedMPH,PrecipitationIn,Events,Conditions,WindDirDegrees,DateUTC
12:56 AM,63.0,57.9,84,30.09,-9999.0,East,8.1,-,N/A,,Unknown,100,2013-08-22 06:56:00
1:56 AM,61.0,57.0,87,30.11,-9999.0,East,8.1,-,N/A,,Unknown,90,2013-08-22 07:56:00
2:56 AM,60.1,55.9,86,30.12,-9999.0,East,10.4,-,N/A,,Unknown,80,2013-08-22 08:56:00
3:56 AM,57.9,55.0,90,30.13,-9999.0,NE,9.2,-,N/A,,Unknown,50,2013-08-22 09:56:00
4:56 AM,55.9,53.1,90,30.13,-9999.0,NE,8.1,-,N/A,,Unknown,50,2013-08-22 10:56:00
5:56 AM,57.0,52.0,83,30.15,-9999.0,East,11.5,-,N/A,,Unknown,80,2013-08-22 11:56:00
6:56 AM,59.0,51.1,75,30.16,-9999.0,East,11.5,-,N/A,,Unknown,80,2013-08-22 12:56:00
7:56 AM,63.0,48.0,58,30.17,-9999.0,East,13.8,-,N/A,,Unknown,100,2013-08-22 13:56:00
8:56 AM,68.0,46.0,45,30.17,-9999.0,ESE,17.3,-,N/A,,Unknown,120,2013-08-22 14:56:00
9:56 AM,71.1,48.0,44,30.16,-9999.0,ESE,12.7,24.2,N/A,,Unknown,110,2013-08-22 15:56:00
10:56 AM,73.9,50.0,43,30.17,-9999.0,ESE,15.0,23.0,N/A,,Unknown,120,2013-08-22 16:56:00
11:56 AM,78.1,51.1,39,30.14,-9999.0,SE,13.8,20.7,N/A,,Unknown,130,2013-08-22 17:56:00
12:56 PM,77.0,54.0,45,30.14,-9999.0,East,10.4,-,N/A,,Unknown,100,2013-08-22 18:56:00
1:56 PM,78.1,55.9,46,30.12,-9999.0,ESE,12.7,-,N/A,,Unknown,110,2013-08-22 19:56:00
2:56 PM,80.1,55.0,42,30.10,-9999.0,ESE,15.0,19.6,N/A,,Unknown,120,2013-08-22 20:56:00
3:56 PM,79.0,55.9,45,30.09,-9999.0,ESE,16.1,-,N/A,,Unknown,120,2013-08-22 21:56:00
4:56 PM,77.0,57.9,52,30.08,-9999.0,SE,12.7,-,N/A,,Unknown,140,2013-08-22 22:56:00
5:56 PM,77.0,59.0,54,30.06,-9999.0,SE,18.4,24.2,N/A,,Unknown,140,2013-08-22 23:56:00
6:56 PM,75.9,57.9,54,30.05,-9999.0,ESE,12.7,-,N/A,,Unknown,120,2013-08-23 00:56:00
7:56 PM,73.9,57.0,55,30.04,-9999.0,SE,12.7,-,N/A,,Unknown,130,2013-08-23 01:56:00
8:56 PM,72.0,57.0,59,30.06,-9999.0,SE,13.8,-,N/A,,Unknown,130,2013-08-23 02:56:00
9:56 PM,71.1,57.0,61,30.06,-9999.0,SE,12.7,-,N/A,,Unknown,140,2013-08-23 03:56:00
10:56 PM,69.1,57.9,68,30.04,-9999.0,SSE,11.5,-,N/A,,Unknown,150,2013-08-23 04:56:00
11:56 PM,68.0,61.0,78,30.02,-9999.0,SSE,11.5,-,N/A,,Unknown,150,2013-08-23 05:56:00